| time (UTC) | temp F | wind direction | speed MPH | gust MPH | rain 1hr in | rain 24hr in | rain mn in | humidity % | barometer mb |
| 20260902151003 | 85 | 261 | 5.0 | 10.0 | 0.00 | 0.00 | 0.00 | 13 | 1009.6 |
| 20260902150503 | 85 | 276 | 5.0 | 9.0 | 0.00 | 0.00 | 0.00 | 14 | 1009.6 |
| 20260902145503 | 83 | 251 | 2.0 | 6.0 | 0.00 | 0.00 | 0.00 | 17 | 1009.7 |
| 20260902145003 | 83 | 225 | 5.0 | 9.0 | 0.00 | 0.00 | 0.00 | 16 | 1009.7 |
| 20260902144003 | 81 | 253 | 1.0 | 3.0 | 0.00 | 0.00 | 0.00 | 20 | 1009.8 |
| 20260902143004 | 80 | 238 | 2.0 | 5.0 | 0.00 | 0.00 | 0.00 | 22 | 1009.7 |
| 20260902142504 | 81 | 234 | 4.0 | 6.0 | 0.00 | 0.00 | 0.00 | 21 | 1009.7 |
| 20260902142003 | 82 | 240 | 3.0 | 8.0 | 0.00 | 0.00 | 0.00 | 15 | 1009.6 |
| 20260902141503 | 82 | 272 | 3.0 | 7.0 | 0.00 | 0.00 | 0.00 | 16 | 1009.5 |
| 20260902141003 | 82 | 271 | 3.0 | 9.0 | 0.00 | 0.00 | 0.00 | 16 | 1009.5 |
| 20260902140003 | 81 | 283 | 4.0 | 8.0 | 0.00 | 0.00 | 0.00 | 17 | 1009.5 |
| 20260902135504 | 81 | 308 | 2.0 | 10.0 | 0.00 | 0.00 | 0.00 | 17 | 1009.4 |
| 20260902135004 | 81 | 298 | 4.0 | 8.0 | 0.00 | 0.00 | 0.00 | 17 | 1009.4 |
| 20260902134503 | 81 | 303 | 5.0 | 10.0 | 0.00 | 0.00 | 0.00 | 17 | 1009.4 |
| 20260902134003 | 81 | 299 | 6.0 | 14.0 | 0.00 | 0.00 | 0.00 | 17 | 1009.2 |
| 20260902133503 | 80 | 287 | 6.0 | 13.0 | 0.00 | 0.00 | 0.00 | 18 | 1009.3 |
| 20260902132503 | 80 | 313 | 3.0 | 12.0 | 0.00 | 0.00 | 0.00 | 18 | 1009.3 |
| 20260902132003 | 80 | 297 | 4.0 | 13.0 | 0.00 | 0.00 | 0.00 | 18 | 1009.4 |
| 20260902131003 | 80 | 291 | 6.0 | 17.0 | 0.00 | 0.00 | 0.00 | 19 | 1009.2 |
| 20260902130503 | 80 | 304 | 6.0 | 14.0 | 0.00 | 0.00 | 0.00 | 19 | 1009.2 |
| 20260902130003 | 80 | 294 | 5.0 | 12.0 | 0.00 | 0.00 | 0.00 | 19 | 1009.1 |
| 20260902125503 | 80 | 292 | 5.0 | 14.0 | 0.00 | 0.00 | 0.00 | 19 | 1009.1 |
| 20260902125003 | 80 | 296 | 6.0 | 14.0 | 0.00 | 0.00 | 0.00 | 20 | 1009.1 |
| 20260902124503 | 80 | 309 | 5.0 | 15.0 | 0.00 | 0.00 | 0.00 | 20 | 1009.1 |
| 20260902124003 | 80 | 294 | 6.0 | 12.0 | 0.00 | 0.00 | 0.00 | 20 | 1009.1 |
| 20260902123503 | 80 | 308 | 3.0 | 12.0 | 0.00 | 0.00 | 0.00 | 21 | 1009.3 |
| 20260902122503 | 79 | 295 | 3.0 | 8.0 | 0.00 | 0.00 | 0.00 | 21 | 1009.1 |
| 20260902122003 | 79 | 311 | 6.0 | 13.0 | 0.00 | 0.00 | 0.00 | 22 | 1009.2 |
| 20260902121003 | 79 | 307 | 5.0 | 12.0 | 0.00 | 0.00 | 0.00 | 22 | 1009.1 |
| 20260902120003 | 80 | 309 | 3.0 | 13.0 | 0.00 | 0.00 | 0.00 | 22 | 1009.2 |
| 20260902115503 | 80 | 302 | 7.0 | 13.0 | 0.00 | 0.00 | 0.00 | 21 | 1009.2 |
| 20260902115003 | 80 | 297 | 5.0 | 13.0 | 0.00 | 0.00 | 0.00 | 21 | 1009.2 |
| 20260902114503 | 79 | 298 | 8.0 | 15.0 | 0.00 | 0.00 | 0.00 | 22 | 1009.2 |
| 20260902114003 | 80 | 307 | 5.0 | 15.0 | 0.00 | 0.00 | 0.00 | 22 | 1009.2 |
| 20260902113503 | 79 | 309 | 5.0 | 15.0 | 0.00 | 0.00 | 0.00 | 22 | 1009.0 |
| 20260902113003 | 79 | 295 | 5.0 | 12.0 | 0.00 | 0.00 | 0.00 | 23 | 1009.1 |
| 20260902112503 | 79 | 294 | 6.0 | 12.0 | 0.00 | 0.00 | 0.00 | 23 | 1009.2 |
| 20260902112004 | 79 | 291 | 4.0 | 10.0 | 0.00 | 0.00 | 0.00 | 23 | 1009.2 |
| 20260902111503 | 79 | 307 | 3.0 | 9.0 | 0.00 | 0.00 | 0.00 | 24 | 1009.4 |
| 20260902111004 | 79 | 295 | 3.0 | 10.0 | 0.00 | 0.00 | 0.00 | 24 | 1009.2 |
| 20260902110503 | 79 | 311 | 5.0 | 13.0 | 0.00 | 0.00 | 0.00 | 24 | 1009.1 |
| 20260902110005 | 79 | 303 | 4.0 | 10.0 | 0.00 | 0.00 | 0.00 | 25 | 1009.2 |
| 20260902105503 | 79 | 302 | 3.0 | 8.0 | 0.00 | 0.00 | 0.00 | 25 | 1009.2 |
| 20260902105003 | 79 | 308 | 6.0 | 12.0 | 0.00 | 0.00 | 0.00 | 25 | 1009.1 |
| 20260902104503 | 79 | 314 | 3.0 | 10.0 | 0.00 | 0.00 | 0.00 | 25 | 1009.1 |
| 20260902103003 | 79 | 302 | 5.0 | 12.0 | 0.00 | 0.00 | 0.00 | 26 | 1009.1 |
| 20260902102503 | 79 | 286 | 7.0 | 12.0 | 0.00 | 0.00 | 0.00 | 26 | 1009.1 |
| 20260902102004 | 79 | 300 | 6.0 | 15.0 | 0.00 | 0.00 | 0.00 | 25 | 1009.3 |
| 20260902101003 | 79 | 290 | 6.0 | 14.0 | 0.00 | 0.00 | 0.00 | 25 | 1009.3 |
| 20260902100503 | 79 | 311 | 5.0 | 13.0 | 0.00 | 0.00 | 0.00 | 26 | 1009.3 |
| 20260902100003 | 79 | 299 | 5.0 | 16.0 | 0.00 | 0.00 | 0.00 | 26 | 1009.2 |
| 20260902095503 | 79 | 302 | 4.0 | 10.0 | 0.00 | 0.00 | 0.00 | 26 | 1009.2 |
| 20260902095004 | 79 | 311 | 3.0 | 9.0 | 0.00 | 0.00 | 0.00 | 26 | 1009.3 |
| 20260902094504 | 80 | 315 | 4.0 | 12.0 | 0.00 | 0.00 | 0.00 | 26 | 1009.2 |
| 20260902094003 | 80 | 310 | 5.0 | 16.0 | 0.00 | 0.00 | 0.00 | 26 | 1009.2 |
| 20260902093503 | 80 | 302 | 6.0 | 10.0 | 0.00 | 0.00 | 0.00 | 26 | 1009.1 |
| 20260902093004 | 80 | 301 | 7.0 | 13.0 | 0.00 | 0.00 | 0.00 | 27 | 1009.2 |
| 20260902092004 | 80 | 314 | 7.0 | 12.0 | 0.00 | 0.00 | 0.00 | 27 | 1009.3 |
| 20260902091503 | 80 | 308 | 6.0 | 15.0 | 0.00 | 0.00 | 0.00 | 27 | 1009.3 |
| 20260902091003 | 80 | 309 | 6.0 | 17.0 | 0.00 | 0.00 | 0.00 | 27 | 1009.3 |
| 20260902090003 | 80 | 305 | 4.0 | 15.0 | 0.00 | 0.00 | 0.00 | 27 | 1009.4 |
| 20260902085503 | 80 | 295 | 7.0 | 14.0 | 0.00 | 0.00 | 0.00 | 26 | 1009.3 |
| 20260902084503 | 81 | 298 | 7.0 | 12.0 | 0.00 | 0.00 | 0.00 | 26 | 1009.4 |
| 20260902084003 | 80 | 297 | 8.0 | 15.0 | 0.00 | 0.00 | 0.00 | 26 | 1009.4 |
| 20260902083503 | 80 | 285 | 7.0 | 14.0 | 0.00 | 0.00 | 0.00 | 26 | 1009.4 |
| 20260902083004 | 81 | 289 | 7.0 | 15.0 | 0.00 | 0.00 | 0.00 | 26 | 1009.5 |
| 20260902082504 | 81 | 309 | 7.0 | 15.0 | 0.00 | 0.00 | 0.00 | 26 | 1009.4 |
| 20260902081503 | 80 | 293 | 6.0 | 14.0 | 0.00 | 0.00 | 0.00 | 26 | 1009.2 |
| 20260902081003 | 80 | 303 | 3.0 | 8.0 | 0.00 | 0.00 | 0.00 | 27 | 1009.2 |
| 20260902075504 | 80 | 308 | 3.0 | 8.0 | 0.00 | 0.00 | 0.00 | 26 | 1009.1 |
| 20260902075003 | 81 | 305 | 2.0 | 8.0 | 0.00 | 0.00 | 0.00 | 27 | 1009.1 |
| 20260902074503 | 81 | 313 | 5.0 | 12.0 | 0.00 | 0.00 | 0.00 | 27 | 1009.0 |
| 20260902074003 | 81 | 288 | 5.0 | 10.0 | 0.00 | 0.00 | 0.00 | 27 | 1009.0 |
| 20260902073003 | 81 | 314 | 5.0 | 12.0 | 0.00 | 0.00 | 0.00 | 27 | 1008.9 |
| 20260902072503 | 81 | 315 | 5.0 | 14.0 | 0.00 | 0.00 | 0.00 | 27 | 1008.9 |
| 20260902070503 | 81 | 290 | 5.0 | 12.0 | 0.00 | 0.00 | 0.00 | 28 | 1008.5 |
| 20260902070005 | 81 | 315 | 4.0 | 9.0 | 0.00 | 0.00 | 0.00 | 29 | 1008.5 |
| 20260902065503 | 82 | 294 | 6.0 | 12.0 | 0.00 | 0.00 | 0.00 | 28 | 1008.4 |
| 20260902065003 | 82 | 293 | 9.0 | 15.0 | 0.00 | 0.00 | 0.00 | 28 | 1008.4 |
| 20260902064003 | 82 | 296 | 7.0 | 14.0 | 0.00 | 0.00 | 0.00 | 28 | 1008.4 |
| 20260902063503 | 82 | 308 | 7.0 | 16.0 | 0.00 | 0.00 | 0.00 | 28 | 1008.4 |
| 20260902063003 | 82 | 307 | 7.0 | 14.0 | 0.00 | 0.00 | 0.00 | 27 | 1008.4 |
| 20260902062503 | 82 | 304 | 7.0 | 16.0 | 0.00 | 0.00 | 0.00 | 26 | 1008.4 |
| 20260902062004 | 82 | 301 | 9.0 | 18.0 | 0.00 | 0.00 | 0.00 | 26 | 1008.3 |
| 20260902060503 | 83 | 298 | 5.0 | 10.0 | 0.00 | 0.00 | 0.00 | 24 | 1008.4 |
| 20260902060003 | 84 | 296 | 5.0 | 13.0 | 0.00 | 0.00 | 0.00 | 24 | 1008.3 |
| 20260902055003 | 84 | 292 | 5.0 | 15.0 | 0.00 | 0.00 | 0.00 | 24 | 1008.4 |
| 20260902054504 | 84 | 310 | 5.0 | 9.0 | 0.00 | 0.00 | 0.00 | 24 | 1008.4 |
| 20260902053503 | 84 | 320 | 4.0 | 10.0 | 0.00 | 0.00 | 0.00 | 23 | 1008.4 |
| 20260902053003 | 84 | 314 | 5.0 | 12.0 | 0.00 | 0.00 | 0.00 | 23 | 1008.4 |
| 20260902052503 | 85 | 299 | 4.0 | 10.0 | 0.00 | 0.00 | 0.00 | 22 | 1008.4 |
| 20260902052003 | 85 | 303 | 5.0 | 12.0 | 0.00 | 0.00 | 0.00 | 21 | 1008.4 |
| 20260902050504 | 85 | 314 | 6.0 | 10.0 | 0.00 | 0.00 | 0.00 | 21 | 1008.4 |
| 20260902050006 | 86 | 322 | 4.0 | 10.0 | 0.00 | 0.00 | 0.00 | 20 | 1008.4 |
| 20260902045503 | 86 | 319 | 3.0 | 6.0 | 0.00 | 0.00 | 0.00 | 20 | 1008.3 |
| 20260902045003 | 86 | 319 | 5.0 | 13.0 | 0.00 | 0.00 | 0.00 | 19 | 1008.3 |
| 20260902044004 | 86 | 314 | 5.0 | 12.0 | 0.00 | 0.00 | 0.00 | 20 | 1008.2 |
| 20260902043504 | 87 | 328 | 3.0 | 13.0 | 0.00 | 0.00 | 0.00 | 19 | 1008.1 |
| 20260902043004 | 87 | 290 | 2.0 | 12.0 | 0.00 | 0.00 | 0.00 | 19 | 1008.0 |
| 20260902042503 | 87 | 289 | 4.0 | 8.0 | 0.00 | 0.00 | 0.00 | 19 | 1007.9 |
| 20260902042003 | 87 | 319 | 3.0 | 7.0 | 0.00 | 0.00 | 0.00 | 19 | 1007.8 |
| 20260902041503 | 87 | 311 | 3.0 | 8.0 | 0.00 | 0.00 | 0.00 | 19 | 1007.8 |
| 20260902041004 | 87 | 310 | 5.0 | 12.0 | 0.00 | 0.00 | 0.00 | 19 | 1007.8 |
| 20260902040003 | 87 | 312 | 6.0 | 17.0 | 0.00 | 0.00 | 0.00 | 20 | 1007.5 |
| 20260902035504 | 88 | 307 | 6.0 | 13.0 | 0.00 | 0.00 | 0.00 | 20 | 1007.5 |
| 20260902035004 | 87 | 307 | 4.0 | 10.0 | 0.00 | 0.00 | 0.00 | 20 | 1007.4 |
| 20260902034504 | 88 | 314 | 6.0 | 13.0 | 0.00 | 0.00 | 0.00 | 20 | 1007.4 |
| 20260902034003 | 88 | 318 | 4.0 | 10.0 | 0.00 | 0.00 | 0.00 | 20 | 1007.3 |
| 20260902033503 | 88 | 313 | 4.0 | 12.0 | 0.00 | 0.00 | 0.00 | 20 | 1007.3 |
| 20260902033003 | 88 | 313 | 5.0 | 13.0 | 0.00 | 0.00 | 0.00 | 20 | 1007.2 |
| 20260902032503 | 88 | 295 | 4.0 | 10.0 | 0.00 | 0.00 | 0.00 | 20 | 1006.9 |
| 20260902032004 | 88 | 306 | 5.0 | 9.0 | 0.00 | 0.00 | 0.00 | 20 | 1006.8 |
| 20260902031503 | 89 | 307 | 4.0 | 10.0 | 0.00 | 0.00 | 0.00 | 20 | 1006.8 |
| 20260902031004 | 89 | 312 | 5.0 | 12.0 | 0.00 | 0.00 | 0.00 | 20 | 1006.8 |
| 20260902030503 | 89 | 315 | 3.0 | 8.0 | 0.00 | 0.00 | 0.00 | 20 | 1006.6 |
| 20260902030004 | 89 | 299 | 4.0 | 6.0 | 0.00 | 0.00 | 0.00 | 20 | 1006.7 |
| 20260902025503 | 90 | 316 | 3.0 | 7.0 | 0.00 | 0.00 | 0.00 | 20 | 1006.7 |
| 20260902025003 | 90 | 325 | 3.0 | 9.0 | 0.00 | 0.00 | 0.00 | 20 | 1006.6 |
| 20260902024503 | 90 | 308 | 5.0 | 9.0 | 0.00 | 0.00 | 0.00 | 20 | 1006.4 |
| 20260902024003 | 91 | 312 | 3.0 | 10.0 | 0.00 | 0.00 | 0.00 | 20 | 1006.3 |
| 20260902023503 | 91 | 297 | 7.0 | 14.0 | 0.00 | 0.00 | 0.00 | 20 | 1006.3 |
| 20260902023003 | 91 | 286 | 3.0 | 7.0 | 0.00 | 0.00 | 0.00 | 20 | 1006.3 |
| 20260902022503 | 92 | 293 | 7.0 | 15.0 | 0.00 | 0.00 | 0.00 | 20 | 1006.3 |
| 20260902021003 | 93 | 292 | 5.0 | 12.0 | 0.00 | 0.00 | 0.00 | 19 | 1006.3 |
| 20260902020503 | 93 | 283 | 5.0 | 16.0 | 0.00 | 0.00 | 0.00 | 20 | 1006.3 |
| 20260902020003 | 93 | 291 | 9.0 | 13.0 | 0.00 | 0.00 | 0.00 | 20 | 1006.2 |
| 20260902015503 | 94 | 292 | 5.0 | 12.0 | 0.00 | 0.00 | 0.00 | 20 | 1006.3 |
| 20260902015003 | 95 | 256 | 3.0 | 12.0 | 0.00 | 0.00 | 0.00 | 18 | 1006.2 |
| 20260902014503 | 95 | 295 | 5.0 | 12.0 | 0.00 | 0.00 | 0.00 | 19 | 1006.3 |
| 20260902014003 | 96 | 278 | 5.0 | 13.0 | 0.00 | 0.00 | 0.00 | 18 | 1006.3 |
| 20260902013504 | 96 | 292 | 8.0 | 17.0 | 0.00 | 0.00 | 0.00 | 17 | 1006.2 |
| 20260902013004 | 96 | 294 | 5.0 | 16.0 | 0.00 | 0.00 | 0.00 | 17 | 1006.2 |
| 20260902012503 | 97 | 267 | 10.0 | 16.0 | 0.00 | 0.00 | 0.00 | 17 | 1006.3 |
| 20260902012004 | 97 | 278 | 3.0 | 12.0 | 0.00 | 0.00 | 0.00 | 17 | 1006.2 |
| 20260902011504 | 98 | 273 | 7.0 | 15.0 | 0.00 | 0.00 | 0.00 | 17 | 1006.3 |
| 20260902011004 | 98 | 255 | 8.0 | 14.0 | 0.00 | 0.00 | 0.00 | 16 | 1006.3 |
| 20260902010504 | 99 | 259 | 9.0 | 16.0 | 0.00 | 0.00 | 0.00 | 16 | 1006.2 |
| 20260902005504 | 99 | 280 | 4.0 | 10.0 | 0.00 | 0.00 | 0.00 | 15 | 1006.3 |
| 20260902004003 | 100 | 300 | 5.0 | 14.0 | 0.00 | 0.00 | 0.00 | 15 | 1006.3 |
| 20260902003504 | 100 | 282 | 9.0 | 15.0 | 0.00 | 0.00 | 0.00 | 15 | 1006.3 |
| 20260902003003 | 100 | 263 | 7.0 | 15.0 | 0.00 | 0.00 | 0.00 | 15 | 1006.3 |
| 20260902002503 | 100 | 285 | 9.0 | 17.0 | 0.00 | 0.00 | 0.00 | 15 | 1006.3 |
| 20260902002003 | 100 | 287 | 7.0 | 18.0 | 0.00 | 0.00 | 0.00 | 14 | 1006.3 |
| 20260902001503 | 101 | 297 | 7.0 | 18.0 | 0.00 | 0.00 | 0.00 | 14 | 1006.3 |
| 20260902001003 | 101 | 294 | 6.0 | 13.0 | 0.00 | 0.00 | 0.00 | 14 | 1006.3 |
| 20260902000504 | 101 | 296 | 4.0 | 12.0 | 0.00 | 0.00 | 0.00 | 14 | 1006.4 |
| 20260902000003 | 101 | 296 | 7.0 | 13.0 | 0.00 | 0.00 | 0.00 | 13 | 1006.4 |
| 20260901235504 | 101 | 314 | 5.0 | 10.0 | 0.00 | 0.00 | 0.00 | 14 | 1006.4 |
| 20260901235003 | 101 | 286 | 5.0 | 12.0 | 0.00 | 0.00 | 0.00 | 13 | 1006.3 |
| 20260901234503 | 100 | 323 | 8.0 | 17.0 | 0.00 | 0.00 | 0.00 | 13 | 1006.4 |
| 20260901234004 | 101 | 302 | 9.0 | 15.0 | 0.00 | 0.00 | 0.00 | 13 | 1006.3 |
| 20260901233503 | 101 | 280 | 6.0 | 16.0 | 0.00 | 0.00 | 0.00 | 14 | 1006.6 |
| 20260901233003 | 101 | 293 | 7.0 | 12.0 | 0.00 | 0.00 | 0.00 | 14 | 1006.6 |
| 20260901232504 | 101 | 294 | 2.0 | 7.0 | 0.00 | 0.00 | 0.00 | 13 | 1006.7 |
| 20260901232004 | 101 | 290 | 8.0 | 13.0 | 0.00 | 0.00 | 0.00 | 13 | 1006.6 |
| 20260901231503 | 102 | 300 | 8.0 | 13.0 | 0.00 | 0.00 | 0.00 | 13 | 1006.6 |
| 20260901231003 | 102 | 300 | 5.0 | 15.0 | 0.00 | 0.00 | 0.00 | 14 | 1006.6 |
| 20260901230503 | 102 | 293 | 7.0 | 20.0 | 0.00 | 0.00 | 0.00 | 13 | 1006.8 |
| 20260901225504 | 102 | 307 | 4.0 | 12.0 | 0.00 | 0.00 | 0.00 | 13 | 1006.8 |
| 20260901225003 | 102 | 230 | 7.0 | 16.0 | 0.00 | 0.00 | 0.00 | 13 | 1006.9 |
| 20260901224504 | 102 | 267 | 9.0 | 14.0 | 0.00 | 0.00 | 0.00 | 13 | 1006.9 |
| 20260901224003 | 101 | 273 | 7.0 | 15.0 | 0.00 | 0.00 | 0.00 | 13 | 1006.8 |
| 20260901223503 | 102 | 244 | 3.0 | 9.0 | 0.00 | 0.00 | 0.00 | 13 | 1007.0 |
| 20260901223005 | 102 | 229 | 3.0 | 7.0 | 0.00 | 0.00 | 0.00 | 13 | 1007.1 |
| 20260901222503 | 102 | 258 | 5.0 | 12.0 | 0.00 | 0.00 | 0.00 | 13 | 1007.1 |
| 20260901222004 | 101 | 287 | 5.0 | 10.0 | 0.00 | 0.00 | 0.00 | 13 | 1007.1 |
| 20260901221504 | 102 | 249 | 6.0 | 12.0 | 0.00 | 0.00 | 0.00 | 13 | 1007.3 |
| 20260901221004 | 102 | 267 | 3.0 | 9.0 | 0.00 | 0.00 | 0.00 | 12 | 1007.3 |
| 20260901220504 | 102 | 321 | 3.0 | 9.0 | 0.00 | 0.00 | 0.00 | 13 | 1007.3 |
| 20260901220004 | 102 | 291 | 4.0 | 10.0 | 0.00 | 0.00 | 0.00 | 13 | 1007.3 |
| 20260901215503 | 102 | 295 | 3.0 | 9.0 | 0.00 | 0.00 | 0.00 | 13 | 1007.4 |
| 20260901215004 | 102 | 311 | 5.0 | 10.0 | 0.00 | 0.00 | 0.00 | 12 | 1007.4 |
| 20260901214504 | 102 | 284 | 7.0 | 13.0 | 0.00 | 0.00 | 0.00 | 13 | 1007.5 |
| 20260901214003 | 102 | 267 | 5.0 | 12.0 | 0.00 | 0.00 | 0.00 | 14 | 1007.6 |
| 20260901213503 | 100 | 245 | 2.0 | 12.0 | 0.00 | 0.00 | 0.00 | 13 | 1007.6 |
| 20260901213004 | 101 | 248 | 5.0 | 13.0 | 0.00 | 0.00 | 0.00 | 13 | 1007.7 |
| 20260901212503 | 100 | 268 | 6.0 | 15.0 | 0.00 | 0.00 | 0.00 | 13 | 1007.8 |
| 20260901212004 | 100 | 287 | 3.0 | 13.0 | 0.00 | 0.00 | 0.00 | 13 | 1007.9 |
| 20260901211503 | 102 | 258 | 7.0 | 15.0 | 0.00 | 0.00 | 0.00 | 13 | 1007.9 |
| 20260901211003 | 101 | 243 | 3.0 | 10.0 | 0.00 | 0.00 | 0.00 | 13 | 1007.9 |
| 20260901210503 | 101 | 257 | 3.0 | 14.0 | 0.00 | 0.00 | 0.00 | 13 | 1007.9 |
| 20260901210004 | 101 | 232 | 7.0 | 12.0 | 0.00 | 0.00 | 0.00 | 11 | 1007.9 |
| 20260901205503 | 101 | 285 | 3.0 | 9.0 | 0.00 | 0.00 | 0.00 | 13 | 1007.9 |
| 20260901205004 | 101 | 280 | 6.0 | 12.0 | 0.00 | 0.00 | 0.00 | 13 | 1007.9 |
| 20260901204503 | 101 | 250 | 2.0 | 9.0 | 0.00 | 0.00 | 0.00 | 12 | 1008.0 |
| 20260901204003 | 100 | 340 | 3.0 | 8.0 | 0.00 | 0.00 | 0.00 | 13 | 1008.1 |
| 20260901203004 | 100 | 44 | 2.0 | 8.0 | 0.00 | 0.00 | 0.00 | 13 | 1008.3 |
| 20260901202004 | 102 | 40 | 5.0 | 10.0 | 0.00 | 0.00 | 0.00 | 12 | 1008.4 |
| 20260901201504 | 101 | 51 | 3.0 | 7.0 | 0.00 | 0.00 | 0.00 | 12 | 1008.4 |
| 20260901201003 | 101 | 34 | 5.0 | 8.0 | 0.00 | 0.00 | 0.00 | 13 | 1008.5 |
| 20260901200503 | 100 | 16 | 5.0 | 7.0 | 0.00 | 0.00 | 0.00 | 14 | 1008.7 |
| 20260901200004 | 99 | 153 | 2.0 | 3.0 | 0.00 | 0.00 | 0.00 | 14 | 1008.7 |
| 20260901195503 | 98 | 60 | 1.0 | 3.0 | 0.00 | 0.00 | 0.00 | 13 | 1008.8 |
| 20260901195004 | 98 | 30 | 1.0 | 3.0 | 0.00 | 0.00 | 0.00 | 12 | 1008.9 |
| 20260901194503 | 98 | 313 | 2.0 | 3.0 | 0.00 | 0.00 | 0.00 | 14 | 1008.9 |
| 20260901194003 | 98 | 21 | 2.0 | 5.0 | 0.00 | 0.00 | 0.00 | 12 | 1009.0 |
| 20260901193503 | 99 | 268 | 2.0 | 7.0 | 0.00 | 0.00 | 0.00 | 14 | 1009.0 |
| 20260901193003 | 98 | 277 | 2.0 | 6.0 | 0.00 | 0.00 | 0.00 | 14 | 1009.1 |
| 20260901192003 | 98 | 127 | 2.0 | 6.0 | 0.00 | 0.00 | 0.00 | 13 | 1009.3 |
| 20260901191503 | 97 | 190 | 2.0 | 5.0 | 0.00 | 0.00 | 0.00 | 14 | 1009.4 |
| 20260901191004 | 97 | 167 | 1.0 | 3.0 | 0.00 | 0.00 | 0.00 | 14 | 1009.4 |
| 20260901190504 | 97 | 253 | 2.0 | 6.0 | 0.00 | 0.00 | 0.00 | 13 | 1009.5 |
| 20260901190003 | 98 | 225 | 5.0 | 7.0 | 0.00 | 0.00 | 0.00 | 13 | 1009.5 |
| 20260901185504 | 98 | 267 | 4.0 | 10.0 | 0.00 | 0.00 | 0.00 | 15 | 1009.5 |
| 20260901185003 | 98 | 305 | 5.0 | 9.0 | 0.00 | 0.00 | 0.00 | 14 | 1009.5 |
| 20260901184504 | 96 | 279 | 3.0 | 7.0 | 0.00 | 0.00 | 0.00 | 15 | 1009.5 |
| 20260901184004 | 97 | 247 | 4.0 | 8.0 | 0.00 | 0.00 | 0.00 | 13 | 1009.6 |
| 20260901183004 | 97 | 235 | 3.0 | 8.0 | 0.00 | 0.00 | 0.00 | 14 | 1009.7 |
| 20260901182503 | 96 | 24 | 3.0 | 6.0 | 0.00 | 0.00 | 0.00 | 13 | 1009.8 |
| 20260901182003 | 96 | 354 | 1.0 | 3.0 | 0.00 | 0.00 | 0.00 | 15 | 1009.9 |
| 20260901181003 | 96 | 202 | 3.0 | 7.0 | 0.00 | 0.00 | 0.00 | 14 | 1009.9 |
| 20260901180504 | 96 | 232 | 2.0 | 6.0 | 0.00 | 0.00 | 0.00 | 14 | 1009.9 |
| 20260901180003 | 97 | 290 | 2.0 | 5.0 | 0.00 | 0.00 | 0.00 | 15 | 1009.9 |
| 20260901175503 | 96 | 272 | 2.0 | 7.0 | 0.00 | 0.00 | 0.00 | 13 | 1009.9 |
| 20260901175003 | 96 | 275 | 3.0 | 7.0 | 0.00 | 0.00 | 0.00 | 16 | 1009.9 |
| 20260901174004 | 95 | 300 | 1.0 | 7.0 | 0.00 | 0.00 | 0.00 | 16 | 1010.0 |
| 20260901173503 | 94 | 254 | 3.0 | 6.0 | 0.00 | 0.00 | 0.00 | 16 | 1010.0 |
| 20260901173003 | 94 | 244 | 3.0 | 6.0 | 0.00 | 0.00 | 0.00 | 16 | 1010.0 |
| 20260901172504 | 94 | 208 | 3.0 | 7.0 | 0.00 | 0.00 | 0.00 | 18 | 1010.0 |
| 20260901171503 | 93 | 236 | 3.0 | 9.0 | 0.00 | 0.00 | 0.00 | 18 | 1010.0 |
| 20260901170504 | 93 | 259 | 2.0 | 7.0 | 0.00 | 0.00 | 0.00 | 16 | 1010.0 |
| 20260901165004 | 92 | 219 | 2.0 | 8.0 | 0.00 | 0.00 | 0.00 | 18 | 1009.9 |
| 20260901164504 | 91 | 217 | 5.0 | 6.0 | 0.00 | 0.00 | 0.00 | 17 | 1009.8 |
| 20260901164003 | 91 | 228 | 5.0 | 8.0 | 0.00 | 0.00 | 0.00 | 16 | 1009.8 |
| 20260901163503 | 92 | 200 | 5.0 | 7.0 | 0.00 | 0.00 | 0.00 | 18 | 1009.7 |
| 20260901163004 | 91 | 229 | 3.0 | 10.0 | 0.00 | 0.00 | 0.00 | 18 | 1009.7 |
| 20260901162504 | 90 | 263 | 6.0 | 10.0 | 0.00 | 0.00 | 0.00 | 16 | 1009.6 |
| 20260901161003 | 90 | 278 | 5.0 | 13.0 | 0.00 | 0.00 | 0.00 | 16 | 1009.5 |
| 20260901160504 | 90 | 276 | 5.0 | 12.0 | 0.00 | 0.00 | 0.00 | 14 | 1009.5 |
| 20260901155004 | 89 | 308 | 3.0 | 7.0 | 0.00 | 0.00 | 0.00 | 14 | 1009.5 |
| 20260901154504 | 89 | 307 | 2.0 | 8.0 | 0.00 | 0.00 | 0.00 | 15 | 1009.5 |
| 20260901154003 | 89 | 321 | 3.0 | 8.0 | 0.00 | 0.00 | 0.00 | 15 | 1009.5 |
| 20260901153504 | 88 | 8 | 3.0 | 7.0 | 0.00 | 0.00 | 0.00 | 16 | 1009.5 |
| 20260901153003 | 88 | 271 | 3.0 | 8.0 | 0.00 | 0.00 | 0.00 | 15 | 1009.5 |
| 20260901151503 | 87 | 234 | 1.0 | 7.0 | 0.00 | 0.00 | 0.00 | 15 | 1009.5 |